Погода в Гурьевке

Украина / Николаевская область     47°07′23″N   31°52′09″E
В апреле 2022 года жителям России запретили посещать сайт meteo.paraplan.net по решению Генеральной прокуратуры. Аудитория сайта уменьшилась в 10 раз. Владельцы сайта не видят смысла в поддержке погодного сервера в таких условиях. Сайт будет закрыт в октябре.
темп.,
°C
ветер,
м/с
пор.,
м/с
влажн.,
%
обл.,
%
осадки,
мм/ч
давл.,
гПа
погр.,
м
25 сентября, вс
вс2500:00+10зсз33615 0.0 101945
03:00+9з47664 0.0 1020130
06:00+8з35693 0.0 102085
09:00+12зсз3552100 0.0 1020285
12:00+17зюз463653 0.0 10201456
15:00+19юз66365 0.0 10181937
18:00+18ююз57495 0.0 1017501
21:00+15ю4106296 0.0 1017211
26 сентября, пн
пн2600:00+17ююз61275100 0.1 1016512
03:00+16юз61179100 1.0 1015485
06:00+16ююз51080100 0.8 1015326
09:00+18ююз796684 0.9 1015867
12:00+20ю895748 0.0 10141105
15:00+21ююз81055100 0.0 10131368
18:00+19ю696997 0.0 1012755
21:00+17ю61183100 0.0 1011440
27 сентября, вт
вт2700:00+17ю5118694 0.0 1010347
03:00+16ю41091100 0.0 1008274
06:00+17ююв4985100 0.0 1006360
09:00+19ююв61074100 0.0 1005647
12:00+23ю91149100 0.0 10031251
15:00+22ю101257100 0.0 10021274
18:00+19ю71178100 0.0 1000607
21:00+19ююз81378100 0.4 1001627
28 сентября, ср
ср2800:00+18ююз51084100 0.9 1001454
03:00+17юз498863 1.0 1001306
06:00+14зсз338785 0.1 100266
09:00+16сз34695 0.1 1003311
12:00+21зсз33461 0.0 1004927
15:00+23зсз23395 0.0 10041541
18:00+21зсз124595 0.0 100549
21:00+18юз116276 0.0 100611
29 сентября, чт
чт2900:00+17юв016470 0.0 100811
03:00+16юв337178 0.0 100930
06:00+15вюв3579100 0.0 100976
09:00+18юв575795 0.0 1010287
12:00+23ююв5642100 0.0 1011971
15:00+24ю5641100 0.0 10101341
18:00+21ю4753100 0.0 1011273
21:00+19ю3769100 0.0 1012144